Chester, CT

2:11 PM EST on December 06, 2019 (GMT -0500)
Chester

Weather History for KSNC - August, 2019

Change the Weather History Date:

Friday, August 9, 2019

  Actual Average (WUND) Record (WUND)
Temperature  
Mean Temperature 73 °F -  
Max Temperature 84 °F - - (-1)
Min Temperature 62 °F - - (-1)
Cooling Degree Days 8    
Growing Degree Days 23 (Base 50)    
Moisture  
Dew Point 60 °F    
Average Humidity 66    
Maximum Humidity 100    
Minimum Humidity 35    
Precipitation  
Precipitation 0.00 in - - ()
Sea Level Pressure  
Sea Level Pressure 29.74 in    
Wind  
Wind Speed 4 mph (West)    
Max Wind Speed 9 mph    
Max Gust Speed 17 mph    
Visibility 10 miles    
Events Rain    
Averages and records for this station are not official NWS values.
T = Trace of Precipitation, MM = Missing Value Source: NWS Daily Summary

Daily Weather History Graph

Daily Weather History Graph

Search for Another Location

Airport or City:

Astronomy

Aug. 09, 2019 Rise Set
Actual Time 5:52 AM EDT 7:57 PM EDT
Civil Twilight 5:22 AM EDT 8:27 PM EDT
Nautical Twilight 4:45 AM EDT 9:04 PM EDT
Astronomical Twilight 4:04 AM EDT 9:45 PM EDT
Moon 3:36 PM EDT (8/9) 12:48 AM EDT (8/9)
Length of Visible Light 15h 05m
Length of Day
14h 04m
Waxing Gibbous, 70% of the Moon is Illuminated
Aug 9
Waxing Gibbous
Aug 15
Full
Aug 23
Last Quarter
Aug 30
New
Sep 5
First Quarter

Hourly Weather History & Observations

Time (EDT) Temp. Heat Index Dew Point Humidity Pressure Visibility Wind Dir Wind Speed Gust Speed Precip Events Conditions
12:15 AM 68.0 °F - 60.8 °F 78% 29.71 in 10.0 mi West 4.6 mph - N/A   Clear
12:35 AM 68.0 °F - 60.8 °F 78% 29.71 in 10.0 mi Calm Calm - N/A   Clear
12:55 AM 68.0 °F - 60.8 °F 78% 29.70 in 10.0 mi Calm Calm - N/A   Clear
1:15 AM 66.2 °F - 60.8 °F 83% 29.71 in 10.0 mi SW 4.6 mph - N/A   Clear
1:35 AM 66.2 °F - 62.6 °F 88% 29.71 in 10.0 mi West 3.5 mph - N/A   Clear
1:55 AM 66.2 °F - 60.8 °F 83% 29.71 in 10.0 mi West 4.6 mph - N/A   Clear
2:15 AM 66.2 °F - 62.6 °F 88% 29.71 in 10.0 mi Calm Calm - N/A   Clear
2:35 AM 66.2 °F - 62.6 °F 88% 29.71 in 10.0 mi West 3.5 mph - N/A   Clear
2:55 AM 66.2 °F - 62.6 °F 88% 29.72 in 10.0 mi Variable 5.8 mph - N/A   Clear
3:15 AM 66.2 °F - 62.6 °F 88% 29.71 in 10.0 mi West 4.6 mph - N/A   Clear
3:35 AM 66.2 °F - 62.6 °F 88% 29.71 in 10.0 mi West 3.5 mph - N/A   Clear
3:55 AM 66.2 °F - 62.6 °F 88% 29.70 in 10.0 mi Calm Calm - N/A   Clear
4:15 AM 64.4 °F - 62.6 °F 94% 29.71 in 10.0 mi Calm Calm - N/A   Clear
4:35 AM 64.4 °F - 62.6 °F 94% 29.71 in 10.0 mi Calm Calm - N/A   Clear
4:55 AM 64.4 °F - 62.6 °F 94% 29.72 in 10.0 mi Calm Calm - N/A   Clear
5:15 AM 64.4 °F - 62.6 °F 94% 29.72 in 10.0 mi Calm Calm - N/A   Clear
5:35 AM 62.6 °F - 62.6 °F 100% 29.72 in 10.0 mi Calm Calm - N/A   Clear
5:55 AM 64.4 °F - 62.6 °F 94% 29.72 in 10.0 mi NNW 4.6 mph - N/A   Clear
6:15 AM 64.4 °F - 62.6 °F 94% 29.73 in 10.0 mi Calm Calm - N/A   Clear
6:35 AM 64.4 °F - 62.6 °F 94% 29.74 in 10.0 mi Calm Calm - N/A   Clear
6:55 AM 66.2 °F - 62.6 °F 88% 29.74 in 10.0 mi NNW 3.5 mph - N/A Rain Light Rain
7:15 AM 68.0 °F - 64.4 °F 88% 29.74 in 10.0 mi NW 3.5 mph - N/A   Clear
7:35 AM 69.8 °F - 64.4 °F 83% 29.75 in 10.0 mi NW 5.8 mph - N/A   Clear
7:55 AM 71.6 °F - 62.6 °F 73% 29.76 in 10.0 mi NNW 8.1 mph - N/A   Clear
8:15 AM 73.4 °F - 62.6 °F 69% 29.76 in 10.0 mi NNW 9.2 mph - N/A   Clear
8:35 AM 73.4 °F - 60.8 °F 65% 29.76 in 10.0 mi NW 6.9 mph 13.8 mph N/A   Clear
8:55 AM 75.2 °F - 60.8 °F 61% 29.76 in 10.0 mi NW 5.8 mph 12.7 mph N/A   Clear
9:15 AM 77.0 °F - 60.8 °F 57% 29.76 in 10.0 mi NNW 9.2 mph - N/A   Clear
9:35 AM 77.0 °F - 60.8 °F 57% 29.76 in 10.0 mi Variable 6.9 mph - N/A   Clear
9:55 AM 78.8 °F - 57.2 °F 47% 29.76 in 10.0 mi NNW 8.1 mph - N/A   Clear
10:15 AM 78.8 °F - 59.0 °F 51% 29.76 in 10.0 mi Variable 5.8 mph - N/A   Clear
10:35 AM 80.6 °F 80.5 °F 55.4 °F 42% 29.76 in 10.0 mi Variable 6.9 mph - N/A   Clear
10:55 AM 80.6 °F 80.5 °F 55.4 °F 42% 29.76 in 10.0 mi WNW 9.2 mph - N/A   Clear
11:15 AM 82.4 °F 81.7 °F 55.4 °F 39% 29.76 in 10.0 mi NW 8.1 mph - N/A   Clear
11:35 AM 82.4 °F 81.4 °F 53.6 °F 37% 29.76 in 10.0 mi Variable 5.8 mph - N/A   Clear
11:55 AM 82.4 °F 81.7 °F 55.4 °F 39% 29.76 in 10.0 mi NW 5.8 mph - N/A   Clear
12:15 PM 82.4 °F 81.7 °F 55.4 °F 39% 29.75 in 10.0 mi NNW 8.1 mph - N/A   Clear
12:35 PM 82.4 °F 81.4 °F 53.6 °F 37% 29.75 in 10.0 mi WNW 9.2 mph - N/A   Clear
12:55 PM 82.4 °F 81.4 °F 53.6 °F 37% 29.75 in 10.0 mi WNW 9.2 mph - N/A   Clear
1:15 PM 84.2 °F 82.8 °F 53.6 °F 35% 29.75 in 10.0 mi WNW 8.1 mph - N/A   Clear
1:35 PM 84.2 °F 82.8 °F 53.6 °F 35% 29.74 in 10.0 mi West 8.1 mph 17.3 mph N/A   Clear
1:55 PM 82.4 °F 81.4 °F 53.6 °F 37% 29.74 in 10.0 mi Variable 5.8 mph 12.7 mph N/A   Partly Cloudy
2:15 PM 82.4 °F 81.4 °F 53.6 °F 37% 29.74 in 10.0 mi West 6.9 mph 13.8 mph N/A   Partly Cloudy
2:35 PM 82.4 °F 81.7 °F 55.4 °F 39% - 10.0 mi West 4.6 mph 11.5 mph N/A   Clear
2:55 PM 84.2 °F 83.5 °F 57.2 °F 40% 29.74 in 10.0 mi Variable 6.9 mph - N/A   Scattered Clouds
3:35 PM 80.6 °F 81.5 °F 60.8 °F 51% 29.73 in 10.0 mi SSW 5.8 mph - N/A   Scattered Clouds
3:55 PM 82.4 °F 82.5 °F 59.0 °F 45% 29.73 in 10.0 mi Variable 6.9 mph 12.7 mph N/A   Clear
4:15 PM 82.4 °F 82.0 °F 57.2 °F 42% 29.73 in 10.0 mi SSW 8.1 mph - N/A   Clear
4:35 PM 82.4 °F 82.5 °F 59.0 °F 45% 29.72 in 10.0 mi SSW 8.1 mph - N/A   Clear
4:55 PM 80.6 °F 81.1 °F 59.0 °F 48% 29.72 in 10.0 mi Variable 4.6 mph - N/A   Scattered Clouds
5:15 PM 82.4 °F 82.5 °F 59.0 °F 45% 29.72 in 10.0 mi Variable 5.8 mph - N/A   Scattered Clouds
5:35 PM 82.4 °F 82.5 °F 59.0 °F 45% 29.72 in 10.0 mi SW 5.8 mph - N/A   Clear
5:55 PM 78.8 °F - 60.8 °F 54% 29.73 in 10.0 mi SW 4.6 mph - N/A   Partly Cloudy
6:15 PM 80.6 °F 81.1 °F 59.0 °F 48% 29.73 in 10.0 mi Variable 4.6 mph - N/A   Partly Cloudy
6:35 PM 78.8 °F - 60.8 °F 54% 29.73 in 10.0 mi SW 5.8 mph - N/A   Clear
6:55 PM 78.8 °F - 60.8 °F 54% 29.74 in 10.0 mi SW 4.6 mph - N/A   Clear
7:15 PM 75.2 °F - 60.8 °F 61% 29.74 in 10.0 mi Variable 4.6 mph - N/A   Clear
7:35 PM 75.2 °F - 62.6 °F 65% 29.74 in 10.0 mi SSW 5.8 mph - N/A   Scattered Clouds
7:55 PM 75.2 °F - 64.4 °F 69% 29.75 in 10.0 mi SSW 6.9 mph - N/A   Scattered Clouds
8:15 PM 75.2 °F - 64.4 °F 69% 29.75 in 10.0 mi Variable 5.8 mph - N/A   Scattered Clouds
8:35 PM 73.4 °F - 64.4 °F 73% 29.76 in 10.0 mi Variable 4.6 mph - N/A   Scattered Clouds
8:55 PM 73.4 °F - 66.2 °F 78% 29.77 in 10.0 mi Variable 4.6 mph - N/A   Scattered Clouds
9:15 PM 71.6 °F - 66.2 °F 83% 29.77 in 10.0 mi Variable 3.5 mph - N/A   Partly Cloudy
9:35 PM 71.6 °F - 66.2 °F 83% 29.78 in 10.0 mi West 3.5 mph - N/A   Clear
9:55 PM 69.8 °F - 66.2 °F 88% 29.78 in 10.0 mi West 3.5 mph - N/A   Partly Cloudy
10:15 PM 69.8 °F - 64.4 °F 83% 29.78 in 10.0 mi Calm Calm - N/A   Partly Cloudy
10:35 PM 69.8 °F - 62.6 °F 78% 29.78 in 10.0 mi Calm Calm - N/A   Clear
10:55 PM 68.0 °F - 60.8 °F 78% 29.78 in 10.0 mi Calm Calm - N/A   Clear
11:15 PM 68.0 °F - 57.2 °F 68% 29.79 in 10.0 mi WNW 4.6 mph - N/A   Clear
11:35 PM 69.8 °F - 55.4 °F 60% 29.78 in 10.0 mi WNW 4.6 mph - N/A   Clear
11:55 PM 69.8 °F - 53.6 °F 56% 29.79 in 10.0 mi WNW 4.6 mph - N/A   Clear